Weather History for Parsons, KS

Change the Weather History Date:

Saturday, February 9, 2013

  Actual Average Record
Temperature  
Mean Temperature 42 °F -  
Max Temperature 48 °F 43 °F 73 °F (1960)
Min Temperature 35 °F 22 °F -15 °F (1979)
Degree Days  
Heating Degree Days 24    
Moisture  
Dew Point 35 °F    
Average Humidity 77    
Maximum Humidity 90    
Minimum Humidity 50    
Precipitation  
Precipitation 0.02 in - - ()
Sea Level Pressure  
Sea Level Pressure 29.99 in    
Wind  
Wind Speed 6 mph (SE)    
Max Wind Speed 12 mph    
Max Gust Speed 21 mph    
Visibility 9 miles    
Events Rain    
Averages and records for this station are not official NWS values.
T = Trace of Precipitation, MM = Missing Value Source: NWS Daily Summary

Daily Weather History Graph

Daily Weather History Graph

Search for Another Location

Airport:

Trip Planner

Search our weather history database for the weather conditions in past years. The results will help you decide how hot, cold, wet, or windy it might be!

Date:

Astronomy

Feb. 09, 2013 Rise Set
Actual Time 7:17 AM CST 5:55 PM CST
Civil Twilight 6:50 AM CST 6:22 PM CST
Nautical Twilight 6:19 AM CST 6:53 PM CST
Astronomical Twilight 5:49 AM CST 7:23 PM CST
Moon 6:29 AM CST (2/9) 5:38 PM CST (2/9)
Length of Visible Light 11h 32m
Length of Day
10h 38m
Waning Crescent, 0% of the Moon is Illuminated
Feb 9
Waning Crescent
Feb 10
New
Feb 17
First Quarter
Feb 25
Full
Mar 4
Last Quarter

Hourly Weather History & Observations

Time (CST) Temp. Windchill Dew Point Humidity Pressure Visibility Wind Dir Wind Speed Gust Speed Precip Events Conditions
12:52 AM 35.1 °F - 30.0 °F 82% 30.21 in 9.0 mi Calm Calm - N/A   Clear
1:52 AM 37.0 °F - 30.0 °F 76% 30.19 in 10.0 mi Calm Calm - N/A   Clear
2:52 AM 37.9 °F 34.4 °F 30.9 °F 76% 30.18 in 10.0 mi SE 4.6 mph - N/A   Clear
3:52 AM 37.9 °F 32.7 °F 30.9 °F 76% 30.16 in 10.0 mi SE 6.9 mph - N/A   Clear
4:52 AM 37.9 °F 34.4 °F 30.9 °F 76% 30.15 in 10.0 mi SE 4.6 mph - N/A   Clear
5:52 AM 37.9 °F 33.5 °F 30.9 °F 76% 30.14 in 10.0 mi SE 5.8 mph - N/A   Clear
6:52 AM 37.9 °F 32.7 °F 30.9 °F 76% 30.16 in 10.0 mi SE 6.9 mph - N/A   Clear
7:52 AM 37.9 °F 32.1 °F 30.9 °F 76% 30.16 in 10.0 mi SE 8.1 mph - N/A   Clear
8:52 AM 39.0 °F 33.4 °F 32.0 °F 76% 30.16 in 10.0 mi SSE 8.1 mph - N/A   Partly Cloudy
9:52 AM 41.0 °F 35.8 °F 33.1 °F 73% 30.14 in 10.0 mi SE 8.1 mph - N/A   Overcast
10:52 AM 45.0 °F 39.7 °F 33.1 °F 63% 30.12 in 10.0 mi SSE 10.4 mph - N/A   Overcast
11:52 AM 46.9 °F - 33.1 °F 59% 30.08 in 10.0 mi SSE 11.5 mph 17.3 mph N/A   Overcast
12:52 PM 48.9 °F - 33.1 °F 54% 30.03 in 10.0 mi SSE 11.5 mph 20.7 mph N/A   Mostly Cloudy
1:52 PM 48.0 °F - 30.0 °F 50% 30.00 in 10.0 mi SSE 9.2 mph 17.3 mph N/A   Scattered Clouds
3:52 PM 41.0 °F 38.0 °F 36.0 °F 82% 29.96 in 8.0 mi SSE 4.6 mph - 0.01 in Rain Light Rain
4:52 PM 42.1 °F 40.2 °F 37.0 °F 82% 29.92 in 8.0 mi Variable 3.5 mph - 0.01 in   Mostly Cloudy
5:52 PM 42.1 °F 38.4 °F 37.0 °F 82% 29.88 in 7.0 mi SE 5.8 mph - 0.00 in Rain Light Rain
6:52 PM 43.0 °F 38.8 °F 37.0 °F 80% 29.86 in 10.0 mi SSE 6.9 mph - 0.00 in   Overcast
7:16 PM 42.8 °F 38.6 °F 37.4 °F 81% 29.87 in 10.0 mi SSE 6.9 mph - N/A   Overcast
7:52 PM 44.1 °F 38.6 °F 37.9 °F 79% 29.87 in 10.0 mi SSE 10.4 mph - 0.00 in   Overcast
8:04 PM 42.8 °F 38.0 °F 37.4 °F 81% 29.85 in 10.0 mi SSE 8.1 mph 17.3 mph 0.00 in Rain Light Rain
8:42 PM 42.8 °F 38.0 °F 39.2 °F 87% 29.84 in 7.0 mi SE 8.1 mph - 0.00 in Rain Light Rain
8:52 PM 44.1 °F 39.5 °F 39.9 °F 85% 29.84 in 8.0 mi SSE 8.1 mph - 0.00 in   Overcast
9:12 PM 44.6 °F 39.7 °F 39.2 °F 81% 29.83 in 5.0 mi SSE 9.2 mph - N/A   Overcast
9:37 PM 44.6 °F 40.2 °F 41.0 °F 87% 29.81 in 4.0 mi SSE 8.1 mph 17.3 mph N/A   Overcast
9:52 PM 44.1 °F 38.1 °F 41.0 °F 89% 29.81 in 4.0 mi SSE 11.5 mph 18.4 mph N/A   Overcast
10:52 PM 45.0 °F 39.3 °F 41.0 °F 86% 29.77 in 6.0 mi SSE 11.5 mph 18.4 mph N/A   Overcast
11:52 PM 45.0 °F 41.8 °F 42.1 °F 90% 29.75 in 6.0 mi SSE 5.8 mph - N/A   Overcast